Williams, AZ

7:13 PM MST on August 28, 2016 (GMT -0700)
Williams

Weather History for KCMR - November, 2013

Change the Weather History Date:

Saturday, November 16, 2013

  Actual Average (KFLG) Record (KFLG)
Temperature  
Mean Temperature 42 °F 36 °F  
Max Temperature 48 °F 50 °F 70 °F (1981)
Min Temperature 37 °F 23 °F -1 °F (1964)
Degree Days  
Heating Degree Days 22 29  
Month to date heating degree days 414  
Since 1 July heating degree days 1297  
Cooling Degree Days 0 0  
Month to date cooling degree days 0  
Year to date cooling degree days 117  
Moisture  
Dew Point 33 °F    
Average Humidity 74    
Maximum Humidity 93    
Minimum Humidity 46    
Precipitation  
Precipitation 0.00 in 0.06 in 0.71 in (1969)
Month to date precipitation 0.90  
Year to date precipitation 19.13  
Snow  
Snow 0.00 in 0.40 in 11.50 in (1958)
Month to date snowfall 4.1  
Since 1 July snowfall 5.6  
Snow Depth -    
Sea Level Pressure  
Sea Level Pressure 29.90 in    
Wind  
Wind Speed 13 mph (South)    
Max Wind Speed 24 mph    
Max Gust Speed 36 mph    
Visibility 10 miles    
Events      
T = Trace of Precipitation, MM = Missing Value Source: NWS Daily Summary

Daily Weather History Graph

Daily Weather History Graph

Search for Another Location

Airport or City:

Trip Planner

Search our weather history database for the weather conditions in past years. The results will help you decide how hot, cold, wet, or windy it might be!

Date:

Astronomy

Nov. 16, 2013 Rise Set
Actual Time 7:05 AM MST 5:21 PM MST
Civil Twilight 6:38 AM MST 5:48 PM MST
Nautical Twilight 6:07 AM MST 6:19 PM MST
Astronomical Twilight 5:37 AM MST 6:49 PM MST
Moon 4:58 PM MST (11/16) 6:06 AM MST (11/16)
Length of Visible Light 11h 10m
Length of Day
10h 16m
Waxing Gibbous, 99% of the Moon is Illuminated
Nov 16
Waxing Gibbous
Nov 17
Full
Nov 25
Last Quarter
Dec 2
New
Dec 9
First Quarter

Hourly Weather History & Observations

Time (MST) Temp. Windchill Dew Point Humidity Pressure Visibility Wind Dir Wind Speed Gust Speed Precip Events Conditions
12:15 AM 39.2 °F 32.5 °F 35.6 °F 87% 29.86 in 10.0 mi SSE 10.4 mph - N/A   Scattered Clouds
12:35 AM 39.2 °F 33.0 °F 35.6 °F 87% 29.85 in 10.0 mi SSE 9.2 mph - N/A   Partly Cloudy
12:55 AM 37.4 °F 30.3 °F 35.6 °F 93% 29.85 in 10.0 mi South 10.4 mph - N/A   Clear
1:15 AM 39.2 °F 33.0 °F 35.6 °F 87% 29.85 in 10.0 mi South 9.2 mph - N/A   Clear
1:35 AM 41.0 °F 33.9 °F 37.4 °F 87% 29.84 in 10.0 mi South 12.7 mph 17.3 mph N/A   Clear
1:55 AM 41.0 °F 33.9 °F 37.4 °F 87% 29.84 in 10.0 mi South 12.7 mph - N/A   Partly Cloudy
2:15 AM 41.0 °F 34.7 °F 37.4 °F 87% 29.84 in 10.0 mi South 10.4 mph 17.3 mph N/A   Mostly Cloudy
2:35 AM 39.2 °F 33.0 °F 35.6 °F 87% 29.84 in 10.0 mi South 9.2 mph - N/A   Scattered Clouds
2:55 AM 39.2 °F 32.0 °F 35.6 °F 87% 29.85 in 10.0 mi South 11.5 mph 20.7 mph N/A   Clear
3:15 AM 41.0 °F 35.8 °F 35.6 °F 81% 29.86 in 10.0 mi South 8.1 mph - N/A   Mostly Cloudy
3:35 AM 41.0 °F 35.2 °F 37.4 °F 87% 29.86 in 10.0 mi South 9.2 mph - N/A   Overcast
3:55 AM 41.0 °F 35.8 °F 35.6 °F 81% 29.86 in 10.0 mi SSW 8.1 mph - N/A   Overcast
4:15 AM 41.0 °F 34.7 °F 37.4 °F 87% 29.87 in 10.0 mi SSW 10.4 mph - N/A   Overcast
4:35 AM 41.0 °F 34.7 °F 37.4 °F 87% 29.87 in 10.0 mi SSW 10.4 mph - N/A   Mostly Cloudy
4:55 AM 41.0 °F 33.9 °F 37.4 °F 87% 29.86 in 10.0 mi South 12.7 mph 18.4 mph N/A   Mostly Cloudy
5:15 AM 41.0 °F 34.7 °F 37.4 °F 87% 29.86 in 10.0 mi South 10.4 mph 18.4 mph N/A   Mostly Cloudy
5:35 AM 41.0 °F 34.3 °F 37.4 °F 87% 29.86 in 10.0 mi South 11.5 mph 18.4 mph N/A   Overcast
5:55 AM 41.0 °F 34.3 °F 37.4 °F 87% 29.86 in 10.0 mi South 11.5 mph - N/A   Overcast
6:15 AM 41.0 °F 34.7 °F 37.4 °F 87% 29.86 in 10.0 mi South 10.4 mph 16.1 mph N/A   Overcast
6:35 AM 41.0 °F 33.9 °F 37.4 °F 87% 29.85 in 10.0 mi South 12.7 mph 20.7 mph N/A   Mostly Cloudy
6:55 AM 39.2 °F 32.0 °F 35.6 °F 87% 29.85 in 10.0 mi South 11.5 mph - N/A   Scattered Clouds
7:15 AM 39.2 °F 30.8 °F 35.6 °F 87% 29.85 in 10.0 mi SSE 15.0 mph 20.7 mph N/A   Scattered Clouds
7:35 AM 41.0 °F 35.2 °F 35.6 °F 81% 29.87 in 10.0 mi South 9.2 mph - N/A   Scattered Clouds
7:55 AM 41.0 °F 34.7 °F 35.6 °F 81% 29.88 in 10.0 mi South 10.4 mph 16.1 mph N/A   Mostly Cloudy
8:15 AM 41.0 °F 32.2 °F 35.6 °F 81% 29.88 in 10.0 mi South 18.4 mph 21.9 mph N/A   Mostly Cloudy
8:35 AM 41.0 °F 33.1 °F 35.6 °F 81% 29.88 in 10.0 mi SSE 15.0 mph 20.7 mph N/A   Scattered Clouds
8:55 AM 41.0 °F 34.7 °F 35.6 °F 81% 29.90 in 10.0 mi South 10.4 mph 21.9 mph N/A   Mostly Cloudy
9:15 AM 42.8 °F 34.3 °F 33.8 °F 70% 29.89 in 10.0 mi South 19.6 mph 25.3 mph N/A   Mostly Cloudy
9:35 AM 44.6 °F 37.8 °F 33.8 °F 66% 29.89 in 10.0 mi South 15.0 mph 25.3 mph N/A   Mostly Cloudy
9:55 AM 44.6 °F 36.6 °F 32.0 °F 61% 29.90 in 10.0 mi South 19.6 mph 27.6 mph N/A   Partly Cloudy
10:15 AM 46.4 °F 39.0 °F 32.0 °F 57% 29.92 in 10.0 mi South 19.6 mph 28.8 mph N/A   Mostly Cloudy
10:35 AM 44.6 °F 36.1 °F 32.0 °F 61% 29.91 in 10.0 mi South 21.9 mph 29.9 mph N/A   Scattered Clouds
10:55 AM 44.6 °F 37.2 °F 32.0 °F 61% 29.92 in 10.0 mi South 17.3 mph 28.8 mph N/A   Scattered Clouds
11:15 AM 46.4 °F 38.5 °F 32.0 °F 57% 29.92 in 10.0 mi SSW 21.9 mph 27.6 mph N/A   Mostly Cloudy
11:35 AM 46.4 °F 39.2 °F 32.0 °F 57% 29.91 in 10.0 mi South 18.4 mph 33.4 mph N/A   Mostly Cloudy
11:55 AM 46.4 °F 38.1 °F 28.4 °F 50% 29.90 in 10.0 mi South 24.2 mph 33.4 mph N/A   Partly Cloudy
12:15 PM 46.4 °F 38.5 °F 30.2 °F 53% 29.89 in 10.0 mi South 21.9 mph 34.5 mph N/A   Clear
12:35 PM 48.2 °F - 32.0 °F 54% 29.88 in 10.0 mi South 20.7 mph 29.9 mph N/A   Clear
12:55 PM 48.2 °F - 28.4 °F 46% 29.86 in 10.0 mi South 19.6 mph 31.1 mph N/A   Clear
1:15 PM 48.2 °F - 28.4 °F 46% 29.85 in 10.0 mi SSW 21.9 mph 33.4 mph N/A   Clear
1:35 PM 48.2 °F - 28.4 °F 46% 29.84 in 10.0 mi South 24.2 mph 35.7 mph N/A   Clear
1:55 PM 48.2 °F - 30.2 °F 50% 29.84 in 10.0 mi SSW 20.7 mph 31.1 mph N/A   Clear
2:15 PM 46.4 °F 38.3 °F 32.0 °F 57% 29.85 in 10.0 mi South 23.0 mph 35.7 mph N/A   Partly Cloudy
2:35 PM 48.2 °F - 32.0 °F 54% 29.86 in 10.0 mi South 19.6 mph 27.6 mph N/A   Partly Cloudy
2:55 PM 48.2 °F - 32.0 °F 54% 29.87 in 10.0 mi SSW 20.7 mph 28.8 mph N/A   Partly Cloudy
3:15 PM 46.4 °F 39.2 °F 32.0 °F 57% 29.88 in 10.0 mi SSW 18.4 mph 27.6 mph N/A   Scattered Clouds
3:35 PM 44.6 °F 37.2 °F 32.0 °F 61% 29.88 in 10.0 mi South 17.3 mph 25.3 mph N/A   Scattered Clouds
3:55 PM 44.6 °F 37.8 °F 32.0 °F 61% 29.88 in 10.0 mi SSW 15.0 mph 26.5 mph N/A   Mostly Cloudy
4:15 PM 44.6 °F 37.4 °F 32.0 °F 61% 29.90 in 10.0 mi SSW 16.1 mph 25.3 mph N/A   Mostly Cloudy
4:35 PM 42.8 °F 35.1 °F 32.0 °F 66% 29.90 in 10.0 mi SSW 16.1 mph 20.7 mph N/A   Mostly Cloudy
4:55 PM 42.8 °F 36.6 °F 32.0 °F 66% 29.91 in 10.0 mi South 11.5 mph 21.9 mph N/A   Scattered Clouds
5:15 PM 41.0 °F 33.9 °F 32.0 °F 70% 29.92 in 10.0 mi South 12.7 mph 23.0 mph N/A   Scattered Clouds
5:35 PM 41.0 °F 33.5 °F 32.0 °F 70% 29.92 in 10.0 mi SSW 13.8 mph 20.7 mph N/A   Mostly Cloudy
5:55 PM 41.0 °F 33.9 °F 32.0 °F 70% 29.93 in 10.0 mi SW 12.7 mph 18.4 mph N/A   Scattered Clouds
6:15 PM 39.2 °F 31.6 °F 32.0 °F 75% 29.94 in 10.0 mi SSW 12.7 mph 16.1 mph N/A   Scattered Clouds
6:35 PM 39.2 °F 32.0 °F 32.0 °F 75% 29.95 in 10.0 mi SSW 11.5 mph 17.3 mph N/A   Scattered Clouds
6:55 PM 39.2 °F 32.5 °F 32.0 °F 75% 29.96 in 10.0 mi SSW 10.4 mph - N/A   Partly Cloudy
7:15 PM 39.2 °F 33.0 °F 32.0 °F 75% 29.96 in 10.0 mi South 9.2 mph - N/A   Scattered Clouds
7:35 PM 39.2 °F 34.2 °F 32.0 °F 75% 29.96 in 10.0 mi South 6.9 mph 20.7 mph N/A   Mostly Cloudy
7:55 PM 39.2 °F 30.5 °F 32.0 °F 75% 29.96 in 10.0 mi South 16.1 mph 24.2 mph N/A   Scattered Clouds
8:15 PM 37.4 °F 30.3 °F 32.0 °F 81% 29.97 in 10.0 mi South 10.4 mph 18.4 mph N/A   Partly Cloudy
8:35 PM 37.4 °F 30.8 °F 32.0 °F 81% 29.97 in 10.0 mi South 9.2 mph 16.1 mph N/A   Clear
8:55 PM 37.4 °F 28.9 °F 32.0 °F 81% 29.97 in 10.0 mi South 13.8 mph 19.6 mph N/A   Clear
9:15 PM 37.4 °F 31.4 °F 32.0 °F 81% 29.98 in 10.0 mi South 8.1 mph - N/A   Clear
9:35 PM 37.4 °F 29.8 °F 32.0 °F 81% 30.00 in 10.0 mi South 11.5 mph 18.4 mph N/A   Partly Cloudy
9:55 PM 37.4 °F 30.3 °F 32.0 °F 81% 30.01 in 10.0 mi South 10.4 mph - N/A   Scattered Clouds
10:15 PM 37.4 °F 30.8 °F 32.0 °F 81% 30.01 in 10.0 mi South 9.2 mph - N/A   Scattered Clouds
10:35 PM 37.4 °F 30.3 °F 32.0 °F 81% 30.01 in 10.0 mi South 10.4 mph 19.6 mph N/A   Partly Cloudy
10:55 PM 37.4 °F 30.8 °F 32.0 °F 81% 30.02 in 10.0 mi South 9.2 mph 19.6 mph N/A   Clear
11:15 PM 37.4 °F 29.3 °F 32.0 °F 81% 30.02 in 10.0 mi South 12.7 mph 21.9 mph N/A   Clear
11:35 PM 37.4 °F 28.5 °F 32.0 °F 81% 30.02 in 10.0 mi South 15.0 mph - N/A   Partly Cloudy
11:55 PM 37.4 °F 29.3 °F 32.0 °F 81% 30.03 in 10.0 mi SSE 12.7 mph 18.4 mph N/A   Clear